Retour au catalogue

CBERS 1 DEB

ActifSSO
NORAD 30789·DEBRIS·🇧🇷 Brazil🇨🇳 China

Lancé Oct 14, 1999 depuis Taiyuan Satellite Launch Center

Loading…

Prochains Passages (prochaines 24 heures)

TLE

FraisSource: Space-Track

Époque: Sep 14, 2026, 22:09 UTC

1 30789U 99057NY  26257.92300600  .00002013  00000-0  43375-3 0  9990
2 30789  98.6222 309.2048 0006455 147.7642  24.5257 14.59584332 29320

Suivez CBERS 1 DEB en temps réel avec AllMySat

Download on the App Store